Location: Guayaquil
(2.1667°S, 79.9000°W)
Time: 21:59:25
(UTC-05:00)

Tiangong 2 - Visible Passes

Search period start: 20 November 2017 00:00
Search period end: 30 November 2017 00:00
Orbit: 386 x 392 km, 42.8° (Epoch: 20 November)

Date Brightness Start Highest point End Pass type
(mag) Time Alt. Az. Time Alt. Az. Time Alt. Az.
20 Nov 2.4 05:34:20 10° SSW 05:37:23 43° SE 05:40:27 10° ENE visible
20 Nov 4.0 18:43:23 10° W 18:45:50 20° SW 18:48:17 10° S visible
21 Nov 4.1 04:37:04 10° S 04:39:16 17° SE 04:41:27 10° E visible
22 Nov 1.2 05:14:44 10° WSW 05:17:51 51° NW 05:20:56 10° NNE visible
23 Nov 2.8 04:20:55 30° ENE 04:20:55 30° ENE 04:22:49 10° ENE visible
24 Nov 3.6 05:00:13 11° N 05:00:13 11° N 05:00:25 10° N visible
